Location: Muenchen
(48.1800°N, 11.5800°E)
Time: 00:25:08
(UTC+02:00)

ISS - All Passes

Search period start: 30 March 2015 00:00
Search period end: 09 April 2015 00:00
Orbit: 396 x 406 km, 51.6° (Epoch: 29 March)

Date Brightness Start Highest point End Pass type
(mag) Time Alt. Az. Time Alt. Az. Time Alt. Az.
30 Mar - 00:32:21 10° WSW 00:35:36 73° SSE 00:38:51 10° ENE night (unlit)
30 Mar - 02:09:00 10° W 02:12:09 45° N 02:15:18 10° ENE night (unlit)
30 Mar - 03:45:41 10° WNW 03:48:53 55° NNE 03:52:05 10° E visible
30 Mar - 05:22:11 10° WNW 05:25:15 41° SSW 05:28:18 10° SE visible
30 Mar - 23:39:08 10° SW 23:42:15 44° SSE 23:45:23 10° ENE night (unlit)
31 Mar - 01:15:27 10° W 01:18:39 53° NNW 01:21:51 10° ENE night (unlit)
31 Mar - 02:52:14 10° WNW 02:55:23 46° N 02:58:32 10° E night (unlit)
31 Mar - 04:28:40 10° WNW 04:31:54 67° SSW 04:35:07 10° SE visible
31 Mar - 06:06:13 10° WSW 06:07:51 13° SW 06:09:22 10° SSW visible
31 Mar - 22:46:09 10° SSW 22:48:56 27° SE 22:51:46 10° E night (unlit)
01 Apr - 00:21:54 10° WSW 00:25:10 71° NNW 00:28:25 10° ENE night (unlit)
01 Apr - 01:58:42 10° WNW 02:01:50 43° N 02:04:57 10° ENE night (unlit)
01 Apr - 03:35:13 10° WNW 03:38:29 80° NNE 03:41:43 10° ESE night (unlit)
01 Apr - 05:12:01 10° W 05:14:36 22° SW 05:17:10 10° SSE visible
01 Apr - 21:53:34 10° S 21:55:40 16° SE 21:57:48 10° E night (unlit)
01 Apr - 23:28:25 10° WSW 23:31:41 80° SSE 23:34:57 10° ENE night (unlit)
02 Apr - 01:05:07 10° W 01:08:15 44° N 01:11:23 10° ENE night (unlit)
02 Apr - 02:41:45 10° WNW 02:44:58 58° NNE 02:48:10 10° E night (unlit)
02 Apr - 04:18:16 10° WNW 04:21:17 36° SSW 04:24:18 10° SE night (unlit)
02 Apr - 22:35:03 10° SW 22:38:14 50° SSE 22:41:24 10° ENE night (unlit)
03 Apr - 00:11:28 10° W 00:14:39 51° NNW 00:17:51 10° ENE night (unlit)
03 Apr - 01:48:13 10° WNW 01:51:23 47° N 01:54:33 10° E night (unlit)
03 Apr - 03:24:39 10° WNW 03:27:53 61° SSW 03:31:04 10° SE night (unlit)
03 Apr - 05:02:34 10° WSW 05:03:46 11° SW 05:04:51 10° SSW night (unlit)
03 Apr - 21:41:56 10° SSW 21:44:49 30° SE 21:47:45 10° E visible
03 Apr - 23:17:49 10° W 23:21:04 66° NNW 23:24:19 10° ENE night (unlit)
04 Apr - 00:54:37 10° WNW 00:57:46 43° N 01:00:53 10° ENE night (unlit)
04 Apr - 02:31:06 10° WNW 02:34:22 87° NNE 02:37:37 10° ESE night (unlit)
04 Apr - 04:08:01 10° W 04:10:27 20° SW 04:12:52 10° S night (unlit)
04 Apr - 20:49:09 10° S 20:51:27 18° SE 20:53:48 10° E visible
04 Apr - 22:24:14 10° WSW 22:27:30 87° SSE 22:30:46 10° ENE visible
05 Apr - 00:00:58 10° WNW 00:04:06 43° N 00:07:14 10° ENE night (unlit)
05 Apr - 01:37:33 10° WNW 01:40:48 62° NNE 01:44:01 10° E night (unlit)
05 Apr - 03:14:07 10° W 03:17:04 33° SW 03:20:01 10° SSE night (unlit)
05 Apr - 19:57:31 10° SE 19:58:07 10° SE 19:58:49 10° ESE daylight
05 Apr - 21:30:45 10° SW 21:33:57 55° SSE 21:37:10 10° ENE visible
05 Apr - 23:07:14 10° W 23:10:25 49° N 23:13:36 10° ENE visible
06 Apr - 00:43:58 10° WNW 00:47:08 49° N 00:50:19 10° E night (unlit)
06 Apr - 02:20:24 10° WNW 02:23:36 54° SSW 02:26:46 10° SE night (unlit)
06 Apr - 03:59:06 10° SW 03:59:26 10° SW 03:59:39 10° SW night (unlit)
06 Apr - 20:37:29 10° SSW 20:40:27 33° SE 20:43:27 10° E visible
06 Apr - 22:13:30 10° W 22:16:44 62° NNW 22:19:59 10° ENE visible
06 Apr - 23:50:17 10° WNW 23:53:26 43° N 23:56:34 10° ENE visible
07 Apr - 01:26:46 10° WNW 01:30:02 86° SSW 01:33:17 10° ESE night (unlit)
07 Apr - 03:03:47 10° W 03:06:04 18° SW 03:08:18 10° S night (unlit)
07 Apr - 19:44:32 10° S 19:46:59 20° SE 19:49:30 10° E daylight
07 Apr - 21:19:48 10° WSW 21:23:05 86° NNW 21:26:21 10° ENE visible
07 Apr - 22:56:33 10° WNW 22:59:41 43° N 23:02:50 10° ENE visible
08 Apr - 00:33:07 10° WNW 00:36:23 66° NNE 00:39:37 10° E night (unlit)
08 Apr - 02:09:43 10° W 02:12:37 29° SW 02:15:28 10° SSE night (unlit)
08 Apr - 18:52:20 10° SSE 18:53:34 12° SE 18:54:53 10° ESE daylight
08 Apr - 20:26:13 10° SW 20:29:26 61° SSE 20:32:41 10° ENE visible
08 Apr - 22:02:45 10° W 22:05:56 47° N 22:09:06 10° ENE visible
08 Apr - 23:39:27 10° WNW 23:42:39 51° NNE 23:45:50 10° E visible
